User: anonymous   Login
Location: Rehoboth Beach
(38.7438°N, 75.1341°W)
Time: 20:24:37
(UTC-05:00)
Language:

Cosmos 1452 Rocket - Orbit

View from above orbital plane
View from above orbital plane
View from above satellite
View from above satellite

Ground track
Ground track

The orbit data is extracted from the following two-line orbital elements,

1 13992U 83031B   14331.18513502  .00000441  00000-0  16128-3 0  5688
2 13992 074.0540 278.1150 0004029 141.8374 316.8461 14.35824127654880
Epoch (UTC): 27 November 2014 04:26:35
Eccentricity: 0.0004029
inclination: 74.0540°
perigee height: 769 km
apogee height: 775 km
right ascension of ascending node: 278.1150°
argument of perigee: 141.8374°
revolutions per day: 14.35824127
mean anomaly at epoch: 316.8461°
orbit number at epoch: 65488

The dashed part of the orbit path shows where the satellite is in the earth's shadow,  

DLR